This is the latest recevied weather packets stored in our database for station/object W0VI. If no packets are shown the sender has not sent any weather packets the latest 10 day(s).
| Time | Temp. | Humidity | Pressure | Rain* | Wind** | Luminosity | Snow |
|---|---|---|---|---|---|---|---|
| 1777613326 | 5.56° C | 61% | 1017.1 hPa | 0 mm | - | 0 W/m² | - |
| 1777613022 | 5.56° C | 61% | 1017.2 hPa | 0 mm | - | 0 W/m² | - |
| 1777612718 | 5.56° C | 64% | 1017 hPa | 0 mm | - | 0 W/m² | - |
| 1777612415 | 5.56° C | 63% | 1017 hPa | 0 mm | - | 0 W/m² | - |
| 1777612110 | 5.56° C | 63% | 1017.1 hPa | 0 mm | - | 0 W/m² | - |
| 1777611806 | 5.56° C | 64% | 1016.9 hPa | 0 mm | - | 0 W/m² | - |
| 1777611502 | 6.11° C | 62% | 1017.1 hPa | 0 mm | - | 0 W/m² | - |
| 1777611199 | 6.11° C | 62% | 1016.8 hPa | 0 mm | - | 0 W/m² | - |
| 1777610896 | 5.56° C | 63% | 1016.6 hPa | 0 mm | - | 0 W/m² | - |
| 1777610590 | 5.56° C | 64% | 1016.6 hPa | 0 mm | - | 0 W/m² | - |
| 1777610289 | 5.56° C | 64% | 1016.8 hPa | 0 mm | - | 0 W/m² | - |
| 1777609987 | 5.56° C | 66% | 1016.9 hPa | 0 mm | - | 0 W/m² | - |
| 1777609683 | 5.56° C | 65% | 1016.6 hPa | 0 mm | - | 0 W/m² | - |
| 1777609380 | 5° C | 66% | 1016.8 hPa | 0 mm | - | 0 W/m² | - |
| 1777609078 | 5° C | 67% | 1016.9 hPa | 0 mm | - | 0 W/m² | - |
| 1777608775 | 5° C | 67% | 1016.8 hPa | 0 mm | - | 0 W/m² | - |
| 1777608471 | 5° C | 68% | 1016.7 hPa | 0 mm | - | 0 W/m² | - |
| 1777608169 | 4.44° C | 69% | 1016.7 hPa | 0 mm | - | 0 W/m² | - |
| 1777607866 | 4.44° C | 69% | 1016.7 hPa | 0 mm | - | 0 W/m² | - |
| 1777607561 | 4.44° C | 68% | 1016.8 hPa | 0 mm | - | 0 W/m² | - |
| 1777607258 | 5° C | 67% | 1016.8 hPa | 0 mm | - | 0 W/m² | - |
| 1777606954 | 5° C | 67% | 1016.8 hPa | 0 mm | - | 0 W/m² | - |
| 1777606650 | 5° C | 66% | 1017 hPa | 0 mm | - | 0 W/m² | - |
| 1777606346 | 5° C | 64% | 1016.8 hPa | 0 mm | - | 0 W/m² | - |
| 1777606040 | 5.56° C | 62% | 1016.8 hPa | 0 mm | - | 0 W/m² | - |
* Rain latest hour (hover to see other rain measurements)
** Current wind speed in m/s (hover to see current wind gust speed)